Location: Gull Harbor
(47.1000°N, 122.9000°W)
Time: 03:16:43
(UTC-08:00)

ISS - Pass Details

Date: 29 October 2019
Orbit: 412 x 421 km, 51.6° (Epoch: 20 November)

Event Time Altitude Azimuth Distance (km) Brightness Sun altitude
Exits shadow 06:14:12 43° 247° (WSW) 605 -3.4 -16.8°
Maximum altitude 06:15:12 88° 329° (NNW) 428 -3.8 -16.6°
Drops below altitude 10° 06:18:36 10° 65° (ENE) 1,510 0.0 -16.0°
Sets 06:20:42 0° 65° (ENE) 2,375 1.2 -15.7°
